Location: Borojevi?i
(45.0486°N, 16.2297°E)
Time: 20:36:35
(UTC+00:00)

SL-4 R/B - Pass Details

Date: 08 August 2020
Orbit: 428 x 665 km, 51.6° (Epoch: 21 September)

Event Time Altitude Azimuth Distance (km) Brightness Sun altitude
Rises 22:23:40 0° 284° (WNW) 2,560 5.7 -28.6°
Reaches altitude 10° 22:26:07 10° 296° (WNW) 1,640 4.8 -28.7°
Enters shadow 22:27:14 16° 308° (NW) 1,276 4.3 -28.7°
